Tracking 20942 objects as of 14-Jul-2020
HD Live streaming from Space Station
objects crossing your sky now

COSMOS 1019

Track COSMOS 1019 now!
10-day predictions
COSMOS 1019 is classified as:


NORAD ID: 10936
Int'l Code: 1978-056G
Perigee: 1,430.4 km
Apogee: 1,495.2 km
Inclination: 74.0 °
Period: 115.0 minutes
Semi major axis: 7833 km
RCS: 0.6903 m2 (medium)
Launch date: June 7, 1978
Source: Commonwealth of Independent States (former USSR) (CIS)
Launch site: PLESETSK MISSILE AND SPACE COMPLEX (PKMTR)
aabbcc
Your satellite tracking list
Your tracking list is empty




NASA's NSSDC Master Catalog

Two Line Element Set (TLE):
1 10936U 78056G   20195.57221922 -.00000020 +00000-0 -27267-4 0  9994
2 10936 074.0248 239.5086 0041369 329.8040 140.9516 12.52118882924276
Source of the keplerian elements: AFSPC